DW2741 Weather Reports


time (UTC)temp
F
wind
direction
speed
knots
gust
knots
rain 1hr
in
rain 24hr
in
rain mn
in
humidity
%
barometer
mb
20260906083053 74 112 0.0 2.6 0.00 0.00 0.00 86 1010.9
20260906081554 74 63 0.0 3.5 0.00 0.00 0.00 87 1011.0
20260906080052 75 34 0.0 3.5 0.00 0.00 0.00 88 1010.8
20260906074533 75 5 0.0 1.7 0.00 0.00 0.00 89 1010.8
20260906073030 75 299 0.0 0.0 0.00 0.00 0.00 89 1010.4
20260906071510 76 299 0.0 0.0 0.00 0.00 0.00 88 1010.6
20260906070009 76 299 0.0 0.0 0.00 0.00 0.00 88 1010.5
20260906064551 76 299 0.0 0.0 0.00 0.00 0.00 88 1010.9
20260906063051 76 299 0.0 0.0 0.00 0.00 0.00 88 1010.8
20260906061537 76 299 0.0 0.0 0.00 0.00 0.00 87 1010.5
20260906060032 76 299 0.0 0.0 0.00 0.00 0.00 87 1010.5
20260906054516 76 299 0.0 0.0 0.00 0.00 0.00 86 1010.5
20260906053017 77 299 0.0 0.0 0.00 0.00 0.00 86 1010.5
20260906051555 77 299 0.0 0.0 0.00 0.00 0.00 85 1010.6
20260906050112 77 299 0.0 0.0 0.00 0.00 0.00 84 1010.5
20260906044540 77 299 0.0 0.0 0.00 0.00 0.00 84 1010.7
20260906043042 77 299 0.0 0.0 0.00 0.00 0.00 83 1010.9
20260906041515 77 299 0.0 0.0 0.00 0.00 0.00 83 1010.8
20260906040014 78 342 0.0 0.0 0.00 0.00 0.00 82 1010.8
20260906034603 78 342 0.0 0.0 0.00 0.00 0.00 82 1010.7
20260906033056 78 342 0.0 0.0 0.00 0.00 0.00 81 1010.6
20260906031546 79 342 0.0 0.0 0.00 0.00 0.00 81 1010.6
20260906030033 79 342 0.0 0.0 0.00 0.00 0.00 80 1010.5
20260906024514 79 342 0.0 0.0 0.00 0.00 0.00 80 1010.3
20260906023018 80 342 0.0 0.0 0.00 0.00 0.00 78 1010.1
20260906021603 80 342 0.0 0.0 0.00 0.00 0.00 78 1009.9
20260906020058 81 342 0.0 0.0 0.00 0.00 0.00 78 1010.2
20260906014535 81 342 0.0 0.0 0.00 0.00 0.00 76 1010.0
20260906013030 82 342 0.0 0.0 0.00 0.00 0.00 74 1009.6
20260906011513 83 342 0.0 0.0 0.00 0.00 0.00 73 1009.2
20260906010006 84 342 0.0 0.0 0.00 0.00 0.00 71 1009.0
20260906004545 86 342 0.0 0.0 0.00 0.00 0.00 70 1008.8
20260906003044 88 342 0.0 0.0 0.00 0.00 0.00 69 1009.0
20260906001519 89 206 0.0 0.0 0.00 0.00 0.00 68 1008.9
20260906000018 90 206 0.0 0.0 0.00 0.00 0.00 64 1009.0
20260905234559 90 206 0.0 0.0 0.00 0.00 0.00 65 1009.1
20260905233105 92 206 0.0 0.0 0.00 0.00 0.00 60 1009.2
20260905231533 94 206 0.0 0.0 0.00 0.00 0.00 59 1008.9
20260905230029 96 206 0.0 0.0 0.00 0.00 0.00 53 1008.8
20260905224511 99 206 0.0 0.0 0.00 0.00 0.00 49 1008.6
20260905223029 99 225 0.0 0.0 0.00 0.00 0.00 50 1008.7
20260905221612 99 225 0.0 0.0 0.00 0.00 0.00 49 1008.8
20260905220100 99 225 0.0 0.0 0.00 0.00 0.00 51 1008.8
20260905214551 99 225 0.0 0.0 0.00 0.00 0.00 49 1008.9
20260905213035 99 225 0.0 0.0 0.00 0.00 0.00 48 1008.9
20260905211542 99 225 0.0 0.0 0.00 0.00 0.00 48 1008.9
20260905210012 99 225 0.0 0.0 0.00 0.00 0.00 48 1009.0
20260905204511 99 223 0.0 0.0 0.00 0.00 0.00 51 1009.2
20260905203052 98 222 0.0 0.0 0.00 0.00 0.00 50 1009.3
20260905201557 98 222 0.0 0.0 0.00 0.00 0.00 51 1009.6
20260905200048 98 225 0.0 0.0 0.00 0.00 0.00 50 1009.8
20260905194532 98 228 0.0 0.0 0.00 0.00 0.00 53 1010.2
20260905193006 98 228 0.0 0.0 0.00 0.00 0.00 54 1010.3
20260905191504 97 228 0.0 0.0 0.00 0.00 0.00 54 1010.3
20260905190052 97 228 0.0 0.0 0.00 0.00 0.00 56 1010.7
20260905184550 97 226 0.0 0.0 0.00 0.00 0.00 53 1010.9
20260905183049 96 228 0.0 0.0 0.00 0.00 0.00 57 1011.1
20260905181544 96 228 0.0 0.0 0.00 0.00 0.00 53 1011.2
20260905180041 96 227 0.0 0.0 0.00 0.00 0.00 54 1011.4
20260905174540 96 227 0.0 0.0 0.00 0.00 0.00 56 1011.4
20260905173040 95 218 0.0 0.0 0.00 0.00 0.00 60 1011.7
20260905171555 94 218 0.0 0.0 0.00 0.00 0.00 59 1011.9
20260905170028 94 195 0.0 0.0 0.00 0.00 0.00 60 1011.9
20260905164521 94 194 0.0 0.0 0.00 0.00 0.00 61 1012.0
20260905163003 93 194 0.0 0.0 0.00 0.00 0.00 64 1012.2
20260905161503 92 194 0.0 0.0 0.00 0.00 0.00 66 1012.4
20260905160050 91 194 0.0 0.0 0.00 0.00 0.00 69 1012.5
20260905154553 90 194 0.0 0.0 0.00 0.00 0.00 70 1012.6
20260905153028 89 194 0.0 0.0 0.00 0.00 0.00 72 1012.7
20260905151529 87 195 0.0 0.0 0.00 0.00 0.00 76 1012.7
20260905150009 86 194 0.0 0.0 0.00 0.00 0.00 82 1012.5
20260905144508 84 195 0.0 0.0 0.00 0.00 0.00 85 1012.6
20260905143052 83 194 0.0 0.0 0.00 0.00 0.00 89 1012.7
20260905141550 82 194 0.0 0.0 0.00 0.00 0.00 91 1012.8
20260905140037 80 195 0.0 0.0 0.00 0.00 0.00 92 1012.8
20260905134531 79 194 0.0 0.0 0.00 0.00 0.00 93 1013.0
20260905133013 77 194 0.0 0.0 0.00 0.00 0.00 93 1013.1
20260905131513 76 194 0.0 0.0 0.00 0.00 0.00 93 1013.2
20260905130055 75 194 0.0 0.0 0.00 0.00 0.00 93 1013.2
20260905124555 74 194 0.0 0.0 0.00 0.00 0.00 93 1013.2
20260905123037 73 194 0.0 0.0 0.00 0.00 0.00 92 1013.2
20260905121536 73 194 0.0 0.0 0.00 0.00 0.00 92 1013.0
20260905120018 73 194 0.0 0.0 0.00 0.00 0.00 92 1012.8
20260905114517 73 194 0.0 0.0 0.00 0.00 0.00 92 1012.8
20260905113059 73 194 0.0 0.0 0.00 0.00 0.00 92 1012.5
20260905111612 73 194 0.0 0.0 0.00 0.00 0.00 92 1012.5
20260905110041 73 194 0.0 0.0 0.00 0.00 0.00 92 1012.2
20260905104546 73 194 0.0 0.0 0.00 0.00 0.00 92 1012.1
20260905103022 73 194 0.0 0.0 0.00 0.00 0.00 92 1011.9
20260905101521 73 194 0.0 0.0 0.00 0.00 0.00 92 1011.7
20260905100003 73 194 0.0 0.0 0.00 0.00 0.00 91 1011.7
20260905094503 73 194 0.0 0.0 0.00 0.00 0.00 91 1011.8
20260905093045 74 194 0.0 0.0 0.00 0.00 0.00 91 1011.8
20260905091546 74 194 0.0 0.0 0.00 0.00 0.00 91 1011.7
20260905090024 74 194 0.0 0.0 0.00 0.00 0.00 91 1011.7
20260905084530 74 194 0.0 0.0 0.00 0.00 0.00 91 1011.5